Location: Franzen
(48.6167°N, 15.3833°E)
Time: 12:38:13
(UTC+00:00)

Cosmos 1500 Rocket - Pass Details

Date: 22 April 2021
Orbit: 603 x 631 km, 82.5° (Epoch: 16 May)

Event Time Altitude Azimuth Distance (km) Brightness Sun altitude
Rises 20:26:59 0° 355° (N) 2,935 7.9 -20.5°
Reaches altitude 10° 20:29:19 10° 1° (N) 2,020 6.9 -20.7°
Maximum altitude 20:33:38 47° 75° (ENE) 839 4.0 -21.2°
Enters shadow 20:33:59 46° 91° (E) 851 3.9 -21.2°
